Location: Bauersach School (historical)
(38.0926°N, 89.4806°W)
Time: 03:12:46
(UTC+00:00)

Cosmos 2263 Rocket - Pass Details

Date: 11 December 2025
Orbit: 821 x 849 km, 71.0° (Epoch: 15 January)

Event Time Altitude Azimuth Distance (km) Brightness Sun altitude
Rises 23:26:08 0° 347° (NNW) 3,407 5.3 -9.3°
Reaches altitude 10° 23:28:56 10° 359° (N) 2,472 4.4 -9.8°
Maximum altitude 23:33:48 28° 58° (ENE) 1,526 3.0 -10.7°
Drops below altitude 10° 23:38:38 10° 117° (ESE) 2,468 4.2 -11.6°
Sets 23:41:25 0° 129° (SE) 3,400 5.0 -12.1°
